Location: Cisewo
(53.3833°N, 14.9000°E)
Time: 02:05:58
(UTC+00:00)

POLYITAN 1 - Pass Details

Date: 25 September 2021
Orbit: 588 x 611 km, 97.9° (Epoch: 27 October)

Event Time Altitude Azimuth Distance (km) Brightness Sun altitude
Rises 01:26:11 0° 9° (N) 2,869 ? -28.6°
Reaches altitude 10° 01:28:30 10° 1° (N) 1,957 ? -28.4°
Enters shadow 01:30:30 24° 342° (NNW) 1,270 ? -28.2°
